Weather History for KNHK - March, 2013

Change the Weather History Date:

Saturday, March 9, 2013

  Actual Average (KSBY) Record (KSBY)
Temperature  
Mean Temperature 44 °F 43 °F  
Max Temperature 57 °F 53 °F 77 °F (2000)
Min Temperature 32 °F 33 °F 15 °F (1996)
Degree Days  
Heating Degree Days 20 22  
Month to date heating degree days 212  
Since 1 July heating degree days 3517  
Cooling Degree Days 0 0  
Month to date cooling degree days 0  
Year to date cooling degree days 0  
Moisture  
Dew Point 24 °F    
Average Humidity 49    
Maximum Humidity 75    
Minimum Humidity 27    
Precipitation  
Precipitation 0.00 in 0.14 in 1.28 in (1998)
Month to date precipitation 1.22  
Year to date precipitation 8.18  
Snow  
Snow 0.00 in 0.00 in 5.00 in (1999)
Month to date snowfall 0.4  
Since 1 July snowfall 8.7  
Snow Depth -    
Sea Level Pressure  
Sea Level Pressure 30.28 in    
Wind  
Wind Speed 11 mph (NNW)    
Max Wind Speed 15 mph    
Max Gust Speed -    
Visibility 10 miles    
Events      
T = Trace of Precipitation, MM = Missing Value Source: NWS Daily Summary

Daily Weather History Graph

Daily Weather History Graph

Search for Another Location

Airport or City:

Trip Planner

Search our weather history database for the weather conditions in past years. The results will help you decide how hot, cold, wet, or windy it might be!

Date:

Astronomy

Mar. 09, 2013 Rise Set
Actual Time 6:25 AM EST 6:07 PM EST
Civil Twilight 5:59 AM EST 6:33 PM EST
Nautical Twilight 5:28 AM EST 7:04 PM EST
Astronomical Twilight 4:57 AM EST 7:34 PM EST
Moon 4:46 AM EST (3/9) 4:07 PM EST (3/9)
Length of Visible Light 12h 34m
Length of Day
11h 41m
Waning Crescent, 5% of the Moon is Illuminated
Mar 9
Waning Crescent
Mar 11
New
Mar 19
First Quarter
Mar 27
Full
Apr 3
Last Quarter

Hourly Weather History & Observations

Time (EST) Temp. Windchill Dew Point Humidity Pressure Visibility Wind Dir Wind Speed Gust Speed Precip Events Conditions
12:52 AM 43.0 °F 35.7 °F 25.0 °F 49% 30.23 in 10.0 mi NNW 15.0 mph - N/A   Clear
1:52 AM 42.1 °F 34.9 °F 26.1 °F 53% 30.25 in 10.0 mi NNW 13.8 mph - N/A   Mostly Cloudy
2:52 AM 41.0 °F 33.9 °F 23.0 °F 49% 30.24 in 10.0 mi NW 12.7 mph - N/A   Clear
3:52 AM 39.9 °F 32.9 °F 23.0 °F 51% 30.24 in 10.0 mi NW 11.5 mph - N/A   Clear
4:52 AM 39.0 °F 31.4 °F 21.9 °F 50% 30.25 in 10.0 mi NW 12.7 mph - N/A   Clear
5:52 AM 37.9 °F 29.6 °F 21.9 °F 53% 30.27 in 10.0 mi NW 13.8 mph - N/A   Clear
6:07 AM 37.4 °F 29.3 °F 21.2 °F 52% 30.27 in 10.0 mi NW 12.7 mph - N/A   Clear
6:52 AM 37.9 °F 30.9 °F 23.0 °F 55% 30.29 in 10.0 mi NW 10.4 mph - N/A   Partly Cloudy
7:52 AM 39.9 °F 32.5 °F 21.9 °F 49% 30.30 in 10.0 mi NNW 12.7 mph - N/A   Clear
8:52 AM 43.0 °F 35.7 °F 23.0 °F 45% 30.32 in 10.0 mi NNW 15.0 mph - N/A   Clear
9:52 AM 46.0 °F 39.6 °F 23.0 °F 40% 30.32 in 10.0 mi NNW 15.0 mph - N/A   Clear
10:52 AM 50.0 °F - 23.0 °F 35% 30.32 in 10.0 mi NNW 11.5 mph - N/A   Clear
11:52 AM 50.0 °F - 25.0 °F 38% 30.31 in 10.0 mi North 10.4 mph - N/A   Clear
12:52 PM 51.1 °F - 28.0 °F 41% 30.28 in 10.0 mi NNE 8.1 mph - N/A   Clear
1:52 PM 55.9 °F - 25.0 °F 30% 30.26 in 10.0 mi NNW 4.6 mph - N/A   Partly Cloudy
2:52 PM 57.0 °F - 23.0 °F 27% 30.25 in 10.0 mi Variable 4.6 mph - N/A   Scattered Clouds
3:52 PM 54.0 °F - 24.1 °F 31% 30.26 in 10.0 mi NNE 8.1 mph - N/A   Scattered Clouds
4:52 PM 53.1 °F - 24.1 °F 32% 30.25 in 10.0 mi NNE 9.2 mph - N/A   Partly Cloudy
5:52 PM 50.0 °F - 23.0 °F 35% 30.26 in 10.0 mi Calm Calm - N/A   Partly Cloudy
6:52 PM 41.0 °F 39.0 °F 28.0 °F 60% 30.27 in 10.0 mi SW 3.5 mph - N/A   Clear
7:52 PM 37.9 °F - 27.0 °F 65% 30.28 in 10.0 mi Calm Calm - N/A   Clear
8:52 PM 35.1 °F - 27.0 °F 72% 30.28 in 10.0 mi Calm Calm - N/A   Clear
9:52 PM 35.1 °F 31.0 °F 27.0 °F 72% 30.30 in 10.0 mi SW 4.6 mph - N/A   Clear
10:52 PM 32.0 °F - 25.0 °F 75% 30.30 in 10.0 mi Calm Calm - N/A   Clear
11:52 PM 34.0 °F - 24.1 °F 67% 30.29 in 10.0 mi Calm Calm - N/A   Clear